Location: ????????
(55.4000°N, 39.1167°E)
Time: 11:02:40
(UTC+00:00)

Okean 2 - Pass Details

Date: 19 May 2025
Orbit: 523 x 534 km, 82.5° (Epoch: 14 June)

Event Time Altitude Azimuth Distance (km) Brightness Sun altitude
Exits shadow 23:24:30 11° 181° (S) 1,720 5.3 -10.1°
Maximum altitude 23:28:14 70° 99° (E) 576 3.5 -9.8°
Drops below altitude 10° 23:32:11 10° 16° (NNE) 1,803 7.4 -9.6°
Sets 23:34:21 0° 14° (NNE) 2,698 8.5 -9.4°
